User: anonymous   Login
Location: Nelson
(41.2830°S, 173.2830°E)
Time: 09:14:00
(UTC+13:00)
Language:

Cosmos 2263 Rocket - Orbit

View from above orbital plane
View from above orbital plane
View from above satellite
View from above satellite

Ground track
Ground track

The orbit data is extracted from the following two-line orbital elements,

1 22803U 93059B   19076.90145414 +.00000038 +00000-0 +42662-4 0  9997
2 22803 070.9927 343.4928 0015675 138.9117 221.3191 14.16807296318496
Epoch (UTC): 17 March 2019 21:38:05
Eccentricity: 0.0015675
inclination: 70.9927°
perigee height: 825 km
apogee height: 847 km
right ascension of ascending node: 343.4928°
argument of perigee: 138.9117°
revolutions per day: 14.16807296
mean anomaly at epoch: 221.3191°
orbit number at epoch: 31849

The dashed part of the orbit path shows where the satellite is in the earth's shadow,  

DLR